Location: Asheville, NC
(35.6000°N, 82.5500°W)
Time: 18:47:43
(UTC-05:00)

KKS-1 - Pass Details

Date: 18 February 2018
Orbit: 638 x 650 km, 98.3° (Epoch: 16 February)

Event Time Altitude Azimuth Distance (km) Brightness Sun altitude
Rises 05:09:52 0° 162° (SSE) 2,927 ? -25.8°
Reaches altitude 10° 05:12:04 10° 161° (SSE) 2,024 ? -25.4°
Maximum altitude 05:16:28 77° 76° (ENE) 661 ? -24.5°
Drops below altitude 10° 05:20:55 10° 350° (N) 2,045 ? -23.6°
Sets 05:23:08 0° 350° (N) 2,960 ? -23.1°
